EDT,Max TemperatureF,Mean TemperatureF,Min TemperatureF,Max Dew PointF,MeanDew PointF,Min DewpointF,Max Humidity, Mean Humidity, Min Humidity, Max Sea Level PressureIn, Mean Sea Level PressureIn, Min Sea Level PressureIn, Max VisibilityMiles, Mean VisibilityMiles, Min VisibilityMiles, Max Wind SpeedMPH, Mean Wind SpeedMPH, Max Gust SpeedMPH,PrecipitationIn, CloudCover, Events, WindDirDegrees
2012-7-1,100,86,72,78,71,62,94,70,45,30.15,29.97,29.88,10,6,1,16,5,31,1.03,2,Rain,192
2012-7-2,92,82,72,70,67,63,79,63,44,30.10,30.03,29.97,10,10,10,15,5,20,0.00,0,,244
2012-7-3,96,84,71,72,70,68,93,67,42,30.02,29.99,29.93,10,9,4,14,2,18,0.00,0,,207
2012-7-4,95,82,69,70,68,64,90,65,39,30.06,29.99,29.94,10,9,4,14,5,29,0.00,0,,214
2012-7-5,97,86,75,75,72,69,87,69,46,29.99,29.95,29.88,10,9,7,13,5,18,0.00,0,,231
2012-7-6,94,83,71,72,70,68,90,70,46,30.01,29.97,29.93,10,10,7,12,3,17,0.00,0,,220
2012-7-7,97,85,72,73,71,69,87,67,42,30.06,30.02,29.96,10,10,7,12,5,14,0.00,0,,217
2012-7-8,98,87,76,74,70,67,87,60,38,30.04,29.99,29.89,10,10,9,15,7,21,0.00,0,,227
2012-7-9,99,87,74,72,70,67,82,67,38,30.03,29.94,29.85,10,8,1,16,7,23,0.77,3,Rain,232
2012-7-10,92,81,70,74,71,66,93,86,56,30.08,29.98,29.91,10,6,1,25,4,36,2.10,4,Rain,72
2012-7-11,91,81,70,72,70,68,93,84,56,30.11,30.05,30.00,10,10,7,23,3,33,0.42,3,Rain,72
2012-7-12,86,79,72,74,72,66,94,84,65,30.14,30.10,30.06,10,7,2,14,4,18,0.03,5,Rain,45
2012-7-13,87,80,73,75,73,71,94,84,65,30.17,30.13,30.09,10,9,2,17,4,23,0.02,4,Rain,90
2012-7-14,90,82,74,75,73,70,94,80,52,30.21,30.17,30.11,10,9,2,13,3,18,0.11,2,,98
2012-7-15,91,82,72,74,71,67,93,75,47,30.21,30.15,30.09,10,10,8,15,3,21,0.00,1,,126
2012-7-16,92,82,71,73,71,69,93,73,49,30.12,30.04,29.96,10,10,2,16,3,21,0.00,1,,282
2012-7-17,92,82,72,72,71,69,93,78,52,30.01,29.98,29.93,10,9,1,13,3,18,0.03,0,Rain,240
2012-7-18,92,82,72,73,71,70,94,74,52,30.05,30.00,29.95,10,8,4,12,4,17,0.00,0,,202
2012-7-19,92,83,73,74,71,68,93,71,52,30.09,30.04,29.98,10,10,8,14,7,21,0.00,1,,213
2012-7-20,93,84,74,73,71,70,93,72,49,30.03,30.00,29.93,10,10,9,18,9,24,0.00,2,,220
2012-7-21,88,82,75,74,72,70,85,74,61,30.11,30.06,30.01,10,10,10,16,7,20,T,0,,218
2012-7-22,94,84,74,74,73,69,94,72,49,30.20,30.15,30.10,10,10,7,10,3,14,0.00,0,,207
2012-7-23,94,84,73,74,72,69,94,71,49,30.21,30.15,30.08,10,9,2,12,4,14,0.00,0,,207
2012-7-24,99,87,75,75,72,67,94,73,35,30.09,29.99,29.90,10,9,1,35,8,47,0.61,2,Rain,241
2012-7-25,93,84,74,77,72,67,93,71,47,29.99,29.94,29.91,10,10,7,13,3,23,0.00,0,,188
2012-7-26,99,88,77,77,75,71,94,70,42,29.94,29.90,29.86,10,8,4,12,4,17,0.00,0,,227
2012-7-27,97,87,77,77,74,69,91,73,49,29.98,29.93,29.90,10,9,7,15,5,23,T,0,,220
2012-7-28,92,83,74,75,73,71,87,74,56,30.02,29.98,29.93,10,10,8,10,4,13,0.00,0,,217
2012-7-29,93,83,72,75,72,70,93,82,56,30.02,29.97,29.91,10,7,0,30,2,36,1.84,4,Fog-Rain,98
2012-7-30,89,80,71,74,71,69,100,87,56,29.99,29.95,29.91,10,5,0,20,3,26,0.02,4,Fog-Rain,59
2012-7-31,88,78,68,75,71,66,97,88,59,29.99,29.95,29.91,10,4,0,14,1,16,0.47,4,Fog-Rain,65